Location: Smithers
(54.7670°N, 127.1670°W)
Time: 16:23:28
(UTC-07:00)

Daily predictions for brighter satellites

Satellite Brightness Start Highest point End
(mag) Time Altitude Azimuth Time Altitude Azimuth Time Altitude Azimuth
Cosmos 2208 Rocket 4.1 21:04:27 10° S 21:09:41 59° ESE 21:15:02 10° NNE
Cosmos 2298 Rocket 4.1 21:04:22 10° NNW 21:09:44 87° ENE 21:15:04 10° SSE
Cosmos 1602 Rocket 3.6 21:06:28 10° N 21:10:59 85° E 21:15:27 10° SSE
Terra 3.9 21:08:54 10° ENE 21:11:12 14° NE 21:13:30 10° NNE
Cosmos 1346 Rocket 3.9 21:07:36 10° NNW 21:11:24 47° W 21:15:12 10° S
Cosmos 1455 Rocket 3.0 21:09:16 10° S 21:13:36 80° E 21:18:00 10° NNE
Cosmos 2123 Rocket 4.4 21:10:35 10° NNW 21:16:44 68° W 21:22:50 10° S
Cosmos 2263 Rocket 3.5 21:13:12 10° NNW 21:17:58 28° NE 21:22:43 10° E
Cosmos 2227 Rocket 3.3 21:13:12 10° NW 21:18:34 44° WSW 21:23:52 10° S
Cosmos 1500 4.0 21:15:45 10° SSE 21:19:07 32° E 21:22:31 10° NNE
ATLAS CENTAUR R/B 2.5 21:14:50 10° WSW 21:19:46 58° NW 21:24:31 10° NE
Cosmos 1937 Rocket 3.6 21:15:14 10° NNW 21:20:31 75° ENE 21:25:49 10° SSE
Cosmos 1943 Rocket 3.9 21:16:19 10° WSW 21:21:34 37° NW 21:26:52 10° NNE
Cosmos 2084 4.2 21:19:20 10° WNW 21:23:08 44° SW 21:27:07 10° SSE
Cosmos 1340 3.3 21:20:53 10° N 21:24:29 38° ENE 21:28:03 10° SE
Envisat 3.1 21:19:28 10° SSE 21:24:31 68° ENE 21:29:35 10° NNW
Cosmos 1570 Rocket 4.0 21:20:01 10° SSW 21:25:19 79° ESE 21:30:37 10° NNE
Iridium 4 Rocket 3.5 21:20:11 10° N 21:25:33 81° E 21:30:24 10° S
Cosmos 1656 4.2 21:21:41 10° S 21:26:46 36° ESE 21:31:48 10° NE
RESURS DK-1 2.4 21:24:37 10° NW 21:28:48 85° WSW 21:32:58 10° SSE
ALOS 3.8 21:26:59 10° SSW 21:31:20 37° W 21:35:43 10° NNW
USA 186 3.6 21:30:10 10° SSW 21:32:57 30° W 21:35:35 10° NNW
H-2A R/B 3.4 21:29:40 10° ESE 21:33:27 22° NE 21:37:12 10° N
Cosmos 2297 Rocket 3.2 21:28:40 10° NW 21:34:01 45° WSW 21:39:23 10° S
Cosmos 990 Rocket 4.0 21:29:14 10° NNW 21:34:32 74° ENE 21:39:47 10° SSE
Cosmos 1515 4.0 21:31:11 10° NNW 21:35:04 73° W 21:38:54 10° S
Cosmos 2150 Rocket 4.3 21:31:02 10° NNW 21:36:11 70° WSW 21:41:18 10° SSE
Cosmos 1459 Rocket 4.3 21:32:05 10° SSE 21:37:48 46° E 21:43:36 10° NNE
Resurs 01 Rocket 4.5 21:36:04 10° SW 21:38:57 17° W 21:41:53 10° NW
YAOGAN 6 3.2 21:35:57 11° SE 21:39:12 41° ENE 21:42:45 10° N
Cosmos 2227 4.3 21:33:25 10° NNW 21:39:13 74° NE 21:44:38 12° SE
BREEZE-M DEB (TANK) 4.3 21:39:06 10° WSW 21:42:19 40° S 21:49:57 12° ESE
Cosmos 2058 Rocket 4.5 21:40:43 13° SE 21:43:35 22° E 21:47:02 10° NE
Cosmos 1606 Rocket 4.3 21:48:11 10° SSE 21:52:11 35° E 21:56:15 10° NNE
SPOT 1/Viking Rocket 3.9 21:47:39 13° SE 21:52:12 51° ENE 21:57:15 10° N
Cosmos 1153 Rocket 4.5 21:47:22 10° S 21:53:34 87° E 21:59:45 10° NNE
Cosmos 1743 3.1 21:50:43 10° SSE 21:54:26 43° E 21:58:12 10° NNE
ERS-1 Rocket 3.6 21:50:17 10° S 21:55:15 58° WSW 22:00:14 10° NNW
Cosmos 1898 Rocket 4.4 21:52:37 10° NW 21:57:44 48° WSW 22:02:47 10° S
MetOp-A 4.1 21:56:53 10° SSE 22:02:13 83° ENE 22:07:38 10° NNW
Lacrosse 5 3.0 21:57:57 10° WNW 22:02:29 33° SW 22:06:31 12° SSE
Cosmos 2278 Rocket 4.4 21:58:47 10° NNW 22:02:33 18° NNE 22:06:19 10° ENE
Cosmos 1125 Rocket 3.7 21:58:51 10° NNW 22:04:02 60° ENE 22:07:50 18° SE
NOSS 2-1 (D) 4.1 22:02:39 10° WSW 22:06:48 67° NW 22:12:02 10° NE
Cosmos 1763 Rocket 4.1 22:03:18 10° SSE 22:07:48 33° ESE 22:12:19 10° NE
NOSS 2-1 (C) 4.1 22:03:41 10° WSW 22:07:50 67° NNW 22:13:04 10° NE
Cosmos 1802 Rocket 4.1 22:01:53 10° S 22:08:11 64° E 22:14:34 10° NNE
Cosmos 1975 3.6 22:06:24 10° SSW 22:10:27 55° WNW 22:14:31 10° N
EP 1 4.2 22:09:26 10° SW 22:12:00 85° SE 22:15:08 10° NE
Cosmos 1842 3.2 22:08:38 10° N 22:12:34 66° ENE 22:15:08 20° SSE
SPOT 5 3.0 22:09:27 10° S 22:14:26 75° WSW 22:19:12 10° NNW
PSLV R/B 3.0 22:13:14 22° SSE 22:15:05 89° ENE 22:18:10 10° NNW
Cosmos 1726 Rocket 3.8 22:12:31 15° SSE 22:15:56 48° E 22:20:13 10° NNE
Cosmos 1697 Rocket 2.7 22:12:51 10° SSW 22:18:26 62° ESE 22:24:00 10° NE
SL-08 RB Rocket 3.8 22:17:46 20° SE 22:20:52 63° ENE 22:25:28 10° N
Cosmos 468 Rocket 3.9 22:16:52 10° SSW 22:21:58 74° ESE 22:27:08 10° NNE
Cosmos 1825 Rocket 4.1 22:18:03 10° NNW 22:22:26 57° W 22:26:44 10° S
Cosmos 2016 Rocket 4.0 22:17:22 10° S 22:23:26 68° E 22:29:38 10° NNE
Cosmos 2278 4.3 22:18:14 10° SW 22:23:53 63° NW 22:29:35 10° NNE
NOSS 2-1 (E) 4.4 22:19:43 10° WSW 22:23:58 60° NNW 22:29:22 10° NE
Cosmos 1707 4.2 22:21:33 10° N 22:24:45 23° ENE 22:26:01 20° E
SL-16 R/B 3.4 22:24:36 20° ESE 22:25:36 21° ESE 22:29:46 10° NE
CZ-4 SHROUD 3.2 22:23:59 25° S 22:25:38 77° WSW 22:28:45 10° NNW
SL-24 R/B - RUBIN 2 4.4 22:20:29 10° SSW 22:26:35 69° SE 22:33:13 10° NE
NOAA 11 4.2 22:24:16 18° SSE 22:28:29 86° ENE 22:34:00 10° NNW
Cosmos 841 Rocket 3.8 22:25:13 14° S 22:29:27 43° ESE 22:34:22 10° NE
Cosmos 1844 Rocket 4.2 22:26:05 10° NNW 22:30:45 26° NNE 22:35:07 11° E
Cosmos 1814 Rocket 3.9 22:26:10 10° SSW 22:31:30 76° ESE 22:36:48 10° NNE
Cosmos 1953 Rocket 4.0 22:27:44 10° NNW 22:32:08 61° W 22:35:53 14° S
Landsat 7 4.0 22:30:02 25° SE 22:32:43 59° ENE 22:37:25 10° N
Cosmos 2173 Rocket 4.1 22:29:44 10° SSW 22:36:07 81° WNW 22:42:29 10° N
Cosmos 2369 4.4 22:32:06 10° SW 22:37:43 58° NW 22:43:23 10° NNE
ARGOS 3.2 22:35:14 19° SSE 22:39:11 82° WSW 22:44:38 10° NNW
USA 215 3.4 22:35:05 22° SE 22:39:26 63° SSW 22:45:56 10° WNW
CZ-4 R/B 4.4 22:35:25 10° NNE 22:39:50 37° E 22:41:29 29° SE
Cosmos 1980 Rocket 2.2 22:35:31 10° SSW 22:41:05 59° ESE 22:46:41 10° NE
H-2A R/B 3.4 22:38:10 10° SSW 22:41:55 33° W 22:45:43 10° NNW
Cosmos 2360 Rocket 4.1 22:43:13 12° E 22:43:13 12° E 22:44:48 10° ENE
Cosmos 1666 2.6 22:41:50 28° S 22:43:40 69° E 22:47:28 10° NNE
Meteor 2-5 Rocket 4.1 22:39:47 10° N 22:45:39 56° ENE 22:48:45 27° SE
Terra 2.0 22:45:51 30° SE 22:48:04 59° ENE 22:52:46 10° N
Tsikada Rocket 4.1 22:41:51 10° NNW 22:48:19 81° W 22:53:10 19° S
Cosmos 2100 Rocket 4.4 22:42:15 10° SSW 22:48:27 64° WNW 22:54:40 10° N
deb Chang Zheng 4 3.9 22:44:11 10° NNE 22:48:38 68° WNW 22:53:04 10° SSW
Cosmos 540 Rocket 4.4 22:48:18 27° ESE 22:48:58 28° E 22:53:18 10° NE
Cosmos 1758 Rocket 4.4 22:46:49 10° NNW 22:51:02 46° W 22:54:14 16° SSW
Cosmos 1864 Rocket 4.4 22:46:24 16° S 22:51:18 72° E 22:57:26 10° NNE
IGS 5A 3.7 22:50:23 35° SE 22:51:49 54° ENE 22:55:54 10° N
GP-B 3.7 22:47:53 10° NNE 22:52:05 39° E 22:53:14 33° ESE
Cosmos 2061 Rocket 4.4 22:46:40 10° SSW 22:52:55 65° WNW 22:59:10 10° N
BREEZE-M DEB (TANK) 4.0 22:45:44 10° SW 22:53:01 27° S 22:53:35 27° SSE
Cosmos 372 Rocket 3.9 22:48:09 10° NNW 22:53:19 86° ENE 22:55:47 32° SSE
ASTEX 1 3.7 22:48:38 10° N 22:53:38 68° W 22:58:22 11° SSW
Meteor 1-15 Rocket 4.3 22:49:45 19° S 22:54:02 67° E 22:59:52 10° NNE
Cosmos 2228 2.9 22:55:33 34° S 22:57:17 66° E 23:01:34 10° NNE
Okean 3 Rocket 4.3 22:54:56 10° N 22:59:07 40° ENE 23:00:18 33° ESE
ATLAS CENTAUR R/B 3.8 22:55:30 10° WNW 22:59:43 27° NNW 23:03:45 10° NE
Cosmos 2263 Rocket 2.1 22:57:01 10° NNW 23:02:39 88° ENE 23:05:14 33° SSE
Cosmos 1441 Rocket 4.0 23:00:23 10° N 23:04:07 37° ENE 23:04:48 35° E
Cosmos 2346 Rocket 4.4 23:01:49 10° N 23:08:08 83° E 23:11:24 30° SSE
Meteor 1-24 Rocket 4.2 23:02:37 10° N 23:08:33 53° ENE 23:11:08 32° SE
Spot 4 3.9 23:08:05 38° SE 23:09:50 68° ENE 23:14:36 10° NNW
Cosmos 1656 4.4 23:04:46 10° SW 23:10:16 55° NW 23:15:43 10° NNE
Cosmos 405 Rocket 2.8 23:07:13 10° NNW 23:11:01 70° W 23:12:00 46° SSW
H-2A R/B 2.0 23:10:08 33° S 23:12:25 78° WSW 23:17:23 10° NNW
Cosmos 2322 Rocket 2.5 23:11:36 35° SSE 23:13:18 45° ESE 23:18:39 10° NE
CZ-4C R/B 3.7 23:14:17 37° S 23:15:58 72° WSW 23:20:22 10° NNW
Genesis I 3.1 23:12:22 10° NW 23:16:23 90° NNW 23:17:06 59° SE
ALOS 2 4.4 23:15:26 17° E 23:16:45 20° NE 23:19:55 10° N
CZ-4B R/B 3.3 23:14:31 10° NNE 23:19:18 90° WNW 23:21:54 28° SSW
CZ-4B R/B 4.1 23:19:45 11° ENE 23:20:24 12° NE 23:21:45 10° NNE
Cosmos 2058 Rocket 3.6 23:17:58 18° SSW 23:21:13 58° WNW 23:25:43 10° N
Cosmos 1725 Rocket 4.1 23:17:10 14° SSW 23:22:31 74° WNW 23:28:49 10° N
Cosmos 2360 4.1 23:16:53 10° SSW 23:22:34 80° ESE 23:28:21 10° NE
Meteor 2-9 Rocket 4.3 23:19:40 16° SSW 23:24:04 71° WNW 23:29:29 10° N
Cosmos 1408 Rocket 4.5 23:20:00 10° N 23:24:09 35° ENE 23:24:55 33° E
GEOS 3 Rocket 3.8 23:21:36 10° NE 23:26:31 44° SE 23:27:04 42° SE
Cosmos 2098 Rocket 4.3 23:20:12 10° SSW 23:26:51 63° WNW 23:32:14 10° N
Cosmos 921 Rocket 4.1 23:26:42 10° N 23:30:47 33° NE 23:31:52 29° E
Cosmos 836 Rocket 4.5 23:31:57 22° SSW 23:35:26 88° WNW 23:40:48 10° NNE
Meteor 2-17 Rocket 4.4 23:32:13 27° SSW 23:35:44 86° W 23:41:51 10° NNE
Cosmos 783 Rocket 4.5 23:38:35 46° SSE 23:39:55 62° ESE 23:45:08 10° NNE
CARTOSAT-1 4.1 23:38:59 38° SSW 23:40:12 50° W 23:44:26 10° NNW
SAR-Lupe-2 3.5 23:46:42 78° W 23:46:42 78° W 23:50:13 10° NNW
Cosmos 2278 Rocket 3.3 23:43:02 10° NNW 23:48:20 37° NE 23:51:11 23° E
Cosmos 2233 Rocket 4.1 23:45:02 26° SSW 23:48:43 74° WNW 23:55:01 10° N
Cosmos 1437 3.6 23:45:57 10° N 23:48:38 45° NNE 23:48:38 45° NNE
Cosmos 1763 Rocket 4.2 23:44:31 10° SW 23:49:28 50° NW 23:54:26 10° NNE
Cosmos 1076 Rocket 3.5 23:45:44 10° N 23:49:58 60° ENE 23:50:13 59° E
